Content
SEND FEEDBACK

Daily
Averages
Monthly
Summary
United States of America

VANDENBERG VILLAGE, CALIFORNIA


Home > North America > United States > California
Elevation: 368 feet     Latitude: 34 45N     Longitude: 120 34W

WEATHER
 
SELECT A DAY
Number of Records: 433,780;   Date Range: 1/1/95 - 12/18/14
 
SHARE

PRINT THIS DATA

[ ← Previous Day ]
WEATHER ALMANAC - FEBRUARY 5, 2013
[ Next Day → ]
[ °C ]   °F
Weather ElementAverageHighLow
Temperature51 °F53.6 °F (10:15 am)42.8 °F (11:55 pm)
Dewpoint45.3 °F48.2 °F (12:55 am)39.2 °F (11:35 pm)
Humidity81.2 %94 % (12:55 am)71 % (5:35 pm)
Barometer30.08 in30.13 in (10:15 am)30.05 in (4:35 am)
Wind Speed5.2 mph11.5 mph (11:35 am)
Wind Gust16.1 mph (2:35 pm)
Weather ElementAverage
Visibility8.7 mi
Wind DirectionSSW (203.2 °)

Weather ElementTotal
Precipitation---
Heating Degree Days16.8 (Base 65)
Averaged from 69 records on February 5, 2013
WEATHER CONDITIONS BREAKOUT
WIND DIRECTION BREAKOUT
WEATHER BY HOUR - FEBRUARY 5, 2013
[ °C ]   °F
Local TimeTemperatureDewpointHumidityBarometerVisibilityWind DirectionWind SpeedGust SpeedPrecipitationEventsConditions
12:35 AM50.0 °F46.4 °F87 %30.08 in5.0 miCalmOvercast
12:55 AM50.0 °F48.2 °F94 %30.08 in5.0 miCalmOvercast
1:15 AM50.0 °F48.2 °F94 %30.08 in5.0 miCalmOvercast
1:35 AM50.0 °F48.2 °F94 %30.07 in6.0 miCalmOvercast
1:55 AM50.0 °F48.2 °F94 %30.07 in5.0 miCalmOvercast
2:15 AM51.8 °F48.2 °F88 %30.07 in5.0 miCalmOvercast
2:35 AM51.8 °F48.2 °F88 %30.06 in5.0 miNNW (330°)3.5 mphOvercast
2:55 AM51.8 °F48.2 °F88 %30.06 in7.0 miCalmOvercast
3:15 AM51.8 °F46.4 °F82 %30.06 in7.0 miNW (310°)6.9 mphOvercast
3:35 AM50.0 °F46.4 °F87 %30.06 in5.0 miWest (280°)4.6 mphOvercast
3:55 AM50.0 °F46.4 °F87 %30.06 in5.0 miCalmOvercast
4:15 AM50.0 °F46.4 °F87 %30.06 in3.0 miCalmOvercast
4:35 AM50.0 °F46.4 °F87 %30.05 in3.0 miCalmOvercast
4:55 AM50.0 °F46.4 °F87 %30.05 in3.0 miCalmOvercast
5:15 AM50.0 °F46.4 °F87 %30.05 in5.0 miNNE (20°)3.5 mphOvercast
5:35 AM50.0 °F46.4 °F87 %30.05 in4.0 miNorth (350°)3.5 mphOvercast
6:15 AM48.2 °F46.4 °F93 %30.06 in10.0 miCalmOvercast
6:35 AM50.0 °F46.4 °F87 %30.07 in10.0 miCalmOvercast
6:55 AM48.2 °F46.4 °F93 %30.07 in10.0 miCalmOvercast
7:15 AM48.2 °F46.4 °F93 %30.08 in7.0 miCalmOvercast
7:35 AM48.2 °F46.4 °F93 %30.08 in7.0 miCalmOvercast
7:55 AM48.2 °F46.4 °F93 %30.09 in10.0 miCalmOvercast
8:15 AM48.2 °F46.4 °F93 %30.10 in8.0 miEast (100°)3.5 mphOvercast
8:35 AM50.0 °F46.4 °F87 %30.10 in10.0 miCalmOvercast
8:55 AM50.0 °F46.4 °F87 %30.11 in10.0 miCalmOvercast
9:15 AM50.0 °F46.4 °F87 %30.12 in10.0 miCalmOvercast
9:35 AM51.8 °F46.4 °F82 %30.12 in10.0 miCalmOvercast
9:55 AM51.8 °F46.4 °F82 %30.12 in10.0 miWNW (300°)5.8 mphOvercast
10:15 AM53.6 °F46.4 °F77 %30.13 in10.0 miWNW (290°)6.9 mphOvercast
10:35 AM53.6 °F46.4 °F77 %30.13 in10.0 miWNW (290°)5.8 mphOvercast
10:55 AM53.6 °F46.4 °F77 %30.13 in10.0 miNW (310°)8.1 mphOvercast
11:15 AM53.6 °F46.4 °F77 %30.12 in10.0 miWest (280°)6.9 mphOvercast
11:35 AM53.6 °F46.4 °F77 %30.12 in10.0 miWest (280°)11.5 mphOvercast
11:55 AM53.6 °F46.4 °F77 %30.11 in10.0 miNW (310°)9.2 mphOvercast
12:15 PM53.6 °F46.4 °F77 %30.10 in10.0 miNW (320°)8.1 mphOvercast
12:35 PM53.6 °F46.4 °F77 %30.10 in10.0 miNW (310°)11.5 mphOvercast
12:55 PM53.6 °F46.4 °F77 %30.09 in10.0 miWNW (300°)11.5 mphOvercast
1:15 PM53.6 °F44.6 °F72 %30.08 in10.0 miNW (310°)9.2 mphOvercast
1:35 PM53.6 °F46.4 °F77 %30.08 in10.0 miWNW (300°)9.2 mphOvercast
1:55 PM53.6 °F46.4 °F77 %30.07 in10.0 miNW (310°)8.1 mphOvercast
2:15 PM53.6 °F46.4 °F77 %30.07 in10.0 miNW (310°)6.9 mphOvercast
2:35 PM53.6 °F46.4 °F77 %30.07 in10.0 miWNW (290°)11.5 mph16.1 mphOvercast
2:55 PM53.6 °F44.6 °F72 %30.07 in10.0 miWNW (300°)10.4 mphOvercast
3:15 PM53.6 °F44.6 °F72 %30.07 in10.0 miWNW (300°)10.4 mphOvercast
3:35 PM53.6 °F44.6 °F72 %30.07 in10.0 miWNW (300°)10.4 mphOvercast
3:55 PM53.6 °F44.6 °F72 %30.07 in10.0 miWNW (300°)10.4 mphOvercast
4:15 PM53.6 °F44.6 °F72 %30.07 in10.0 miNW (310°)11.5 mphOvercast
4:35 PM51.8 °F44.6 °F76 %30.07 in10.0 miNW (310°)11.5 mphOvercast
4:55 PM51.8 °F44.6 °F76 %30.07 in10.0 miNW (310°)9.2 mphOvercast
5:15 PM51.8 °F44.6 °F76 %30.07 in10.0 miNW (310°)5.8 mphOvercast
5:35 PM51.8 °F42.8 °F71 %30.07 in10.0 miNW (310°)8.1 mphOvercast
5:55 PM51.8 °F42.8 °F71 %30.07 in10.0 miWNW (300°)6.9 mphOvercast
6:15 PM51.8 °F44.6 °F76 %30.07 in10.0 miWNW (300°)6.9 mphOvercast
6:35 PM51.8 °F44.6 °F76 %30.07 in10.0 miNW (310°)9.2 mphOvercast
6:55 PM51.8 °F44.6 °F76 %30.08 in10.0 miWNW (300°)9.2 mphOvercast
7:15 PM51.8 °F42.8 °F71 %30.08 in10.0 miNW (310°)10.4 mphOvercast
7:35 PM51.8 °F42.8 °F71 %30.08 in10.0 miNW (310°)8.1 mphOvercast
7:55 PM51.8 °F44.6 °F76 %30.08 in10.0 miNW (320°)4.6 mphOvercast
8:15 PM51.8 °F42.8 °F71 %30.08 in10.0 miNW (320°)4.6 mphOvercast
8:35 PM51.8 °F42.8 °F71 %30.08 in10.0 miNW (320°)6.9 mphOvercast
8:55 PM51.8 °F42.8 °F71 %30.08 in10.0 miNorth (350°)3.5 mphOvercast
9:15 PM51.8 °F42.8 °F71 %30.08 in10.0 miNNW (330°)3.5 mphOvercast
9:35 PM50.0 °F42.8 °F76 %30.08 in10.0 miWest (280°)3.5 mphMostly Cloudy
9:55 PM48.2 °F42.8 °F82 %30.08 in10.0 miWest (280°)4.6 mphScattered Clouds
10:15 PM46.4 °F41.0 °F81 %30.08 in10.0 miWest (270°)8.1 mphClear
10:35 PM44.6 °F41.0 °F87 %30.08 in10.0 miWest (270°)5.8 mphClear
11:15 PM44.6 °F41.0 °F87 %30.08 in10.0 miWSW (250°)6.9 mphClear
11:35 PM44.6 °F39.2 °F81 %30.08 in10.0 miWest (280°)6.9 mphClear
11:55 PM42.8 °F39.2 °F87 %30.08 in10.0 miWest (270°)5.8 mphClear
Hourly data recorded from KLPC, located miles away from Vandenberg Village, California







STORIES FROM OUR PARTNERS